Regional Weather Roundup
Issued by NWS

Home | Current Version | Previous Version | Graphics & Text | Print | Product List | Glossary On
Versions: 1 2 3 4 5 6 7 8 9 10 11 12 13 14 15 16 17 18 19 20 21 22 23 24 25 26 27 28
000
ASUS45 KTFX 221210
RWRMT
MONTANA REGIONAL WEATHER ROUNDUP
NATIONAL WEATHER SERVICE GREAT FALLS MT
600 AM MDT SAT JUL 22 2017

NOTE: "FAIR" INDICATES FEW OR NO CLOUDS BELOW 12000 FEET WITH NO
SIGNIFICANT WEATHER AND/OR OBSTRUCTIONS TO VISIBILITY.

MTZ001>007-043-221300-
WEST OF THE DIVIDE

CITY           SKY/WX    TMP DP  RH WIND       PRES   REMARKS
KALISPELL      CLEAR     45  40  82 CALM      30.17R
MISSOULA       CLEAR     49  37  63 CALM      30.20R
BUTTE          CLEAR     44  30  57 SE3       30.28R
MULLAN PASS    CLEAR     53  32  44 CALM      30.29S
ANACONDA         N/A     48  28  46 SW5       30.25S
DEER LODGE       N/A     43  34  70 CALM      30.26R
EUREKA           N/A     54  43  66 MISG      30.15R
HAMILTON         N/A     46  36  66 CALM      30.22R
LIBBY            N/A     46  39  76 SE3       30.16R
$$

MTZ008-052>055-221300-
SOUTHWEST MONTANA

CITY           SKY/WX    TMP DP  RH WIND       PRES   REMARKS
BOZEMAN        CLEAR     46  38  73 SE8       30.21R
DILLON         CLEAR     52  26  36 S7        30.24R
W YELLOWSTONE  CLOUDY    36  30  80 CALM      30.32S
ENNIS          CLEAR     48  30  49 E6        30.29R
THREE FORKS      N/A     44  38  79 CALM      30.17R
$$

MTZ009-010-012-014-046-048-049-054-221300-
EAST SLOPES AND CENTRAL MONTANA

CITY           SKY/WX    TMP DP  RH WIND       PRES   REMARKS
CUT BANK       CLEAR     48  41  76 CALM      30.15S
GREAT FALLS    CLEAR     48  35  60 SW5       30.15S
MALMSTROM AFB  CLEAR     46  34  63 SE6       30.14S
HELENA         CLEAR     57  38  48 CALM      30.17R
CHOTEAU          N/A     52  39  62 W5        30.18S
$$

MTZ011-013-016-021-045-047-050-051-221300-
NORTH CENTRAL MONTANA

CITY           SKY/WX    TMP DP  RH WIND       PRES   REMARKS
HAVRE          CLEAR     49  40  71 W6        30.11R
LEWISTOWN      CLOUDY    48  32  53 SE6       30.17S
N BAR RANCH      N/A     48  30  49 CALM      30.21R
CHINOOK          N/A     52  45  76 CALM      30.10R
$$

MTZ017>020-022>027-061-062-221300-
NORTHEAST MONTANA

CITY           SKY/WX    TMP DP  RH WIND       PRES   REMARKS
GLASGOW        PTCLDY    58  43  57 NW7       30.05R
JORDAN           N/A     51  36  56 W3        30.08R
SIDNEY         CLEAR     52  44  74 CALM      30.00R
WOLF POINT     MOCLDY    56  43  61 W7        30.03R
MALTA          CLEAR     52  45  76 SW7       30.07R
PLENTYWOOD       N/A     55  46  71 CALM      29.98S
POPLAR           N/A     55  43  62 W3        30.02R
$$

MTZ028>42-056>058-221300-
SOUTHCENTRAL AND SOUTHEAST MONTANA

CITY           SKY/WX    TMP DP  RH WIND       PRES   REMARKS
BAKER          CLEAR     52  38  58 CALM      30.06R
BILLINGS       PTCLDY    62  29  28 W3        30.13R
LIVINGSTON     CLEAR     46  34  62 NW7       30.21R
MILES CITY     CLEAR     56  29  35 W10       30.06R
BIG TIMBER     CLEAR     54  32  43 SW10      30.21S
FORSYTH          N/A     61  30  31 CALM      30.08R
LAUREL           N/A     58  26  29 W1        30.12F
$$

REGIONAL REPORTS...DAKOTAS

CITY           SKY/WX    TMP DP  RH WIND       PRES   REMARKS
WILLISTON      PTCLDY    60  47  61 CALM      29.98R
MINOT          CLEAR     64  55  72 W10       29.91R
DICKINSON      CLEAR     54  47  77 W6        29.99R
BEACH            N/A     50  46  87 CALM      30.05S
CROSBY           N/A     55  52  88 CALM      29.95S
TIOGA            N/A     50  50 100 SW7       29.99R
WATFORD CITY     N/A     52  48  87 W6        29.97S
BISMARCK       CLEAR     63  61  93 NW8       29.93R
GRAND FORKS    CLEAR     65  65 100 SW7       29.77R
FARGO          CLEAR     67  64  90 S7        29.82R
BUFFALO SD       N/A     58  44  60 SW5       29.98R
RAPID CITY     LGT RAIN  62  50  64 NW9       30.05R
$$

REGIONAL REPORTS...WYOMING/IDAHO/WASHINGTON

CITY           SKY/WX    TMP DP  RH WIND       PRES   REMARKS
GILLETTE       PTCLDY    52  38  58 S3        30.12R
SHERIDAN       CLEAR     56  40  55 CALM      30.13R
BUFFALO WY     CLEAR     66  31  27 N16       30.17R
CODY           CLEAR     56  36  47 S3        30.21R
YELLOWSTONE LA   N/A     38  35  89 CALM      30.40R
IDAHO FALLS    CLEAR     48  43  82 CALM      30.18R
BOISE          CLEAR     60  41  49 S3        30.10R
SPOKANE        PTCLDY    58  40  51 S8        30.15R
$$

REGIONAL REPORTS...ALBERTA

CITY           SKY/WX    TMP DP  RH WIND       PRES   REMARKS
EDMONTON       CLEAR     55  54  94 SW6       29.99R
CALGARY        MOCLDY    52  39  62 CALM      30.09S
LETHBRIDGE     PTCLDY    48  43  81 S7        30.10R
MEDICINE HAT   CLEAR     52  48  87 S8        30.07R
WATERTON GATE    N/A     54  41  62 SW9         N/A
MILK RIVER       N/A     46  43  87 NW2         N/A
$$

REGIONAL REPORTS...SASKATCHEWAN

CITY           SKY/WX    TMP DP  RH WIND       PRES   REMARKS
SWIFT CURRENT  CLEAR     50  50 100 W12       30.03R
REGINA         PTCLDY    48  48 100 NW5       29.95R
SASKATOON      FOG       50  48  93 NW2       29.98R VSB 1/8
CYPRESS HILLS    N/A     52  48  87 NW6         N/A
ROCKGLEN         N/A     52  48  87 W8          N/A
ASSINIBOIA       N/A     50  50 100 S5          N/A
$$




USA.gov is the U.S. government's official web portal to all federal, state and local government web resources and services.